Abbotsford, British Columbia

10:58 PM PDT on August 20, 2017 (GMT -0700)
Abbotsford

Weather History for CYXX - July, 2013

Change the Weather History Date:

Thursday, July 4, 2013

  Actual Average Record
Temperature  
Mean Temperature 61 °F -  
Max Temperature 70 °F 74 °F 87 °F (1997)
Min Temperature 52 °F 52 °F 47 °F (2012)
Degree Days  
Heating Degree Days 4    
Growing Degree Days 11 (Base 50)    
Moisture  
Dew Point 52 °F    
Average Humidity 70    
Maximum Humidity 88    
Minimum Humidity 47    
Precipitation  
Precipitation 0.00 in 0.07 in - ()
Sea Level Pressure  
Sea Level Pressure 30.07 in    
Wind  
Wind Speed 6 mph ()    
Max Wind Speed 15 mph    
Max Gust Speed 18 mph    
Visibility 10.6 miles    
Events      
Averages and records for this station are not official NWS values.
T = Trace of Precipitation, MM = Missing Value Source: Averaged Metar Reports

Daily Weather History Graph

Daily Weather History Graph

Search for Another Location

Airport or City:

Trip Planner

Search our weather history database for the weather conditions in past years. The results will help you decide how hot, cold, wet, or windy it might be!

Date:

Astronomy

Jul. 04, 2013 Rise Set
Actual Time 5:11 AM PDT 9:16 PM PDT
Civil Twilight 4:29 AM PDT 9:58 PM PDT
Nautical Twilight 3:29 AM PDT 10:57 PM PDT
Astronomical Twilight 1:32 AM PDT 12:49 AM PDT
Moon 2:39 AM PDT (7/4) 6:19 PM PDT (7/4)
Length of Visible Light 17h 28m
Length of Day
16h 04m
Waning Crescent, 11% of the Moon is Illuminated
Jul 4
Waning Crescent
Jul 8
New
Jul 15
First Quarter
Jul 22
Full
Jul 29
Last Quarter

Hourly Weather History & Observations

Time (PDT) Temp. Dew Point Humidity Pressure Visibility Wind Dir Wind Speed Gust Speed Precip Events Conditions
12:00 AM 57.2 °F 46.4 °F 67% 30.06 in 10.0 mi WSW 4.6 mph - N/A   Clear
1:00 AM 57.2 °F 48.2 °F 72% 30.06 in 10.0 mi West 4.6 mph - N/A   Clear
2:00 AM 55.4 °F 48.2 °F 77% 30.06 in 10.0 mi WSW 4.6 mph - N/A   Clear
3:00 AM 55.4 °F 48.2 °F 77% 30.06 in 10.0 mi WSW 4.6 mph - N/A   Scattered Clouds
4:00 AM 53.6 °F 50.0 °F 88% 30.06 in 10.0 mi NW 3.5 mph - N/A   Partly Cloudy
5:00 AM 54 °F 50 °F 82% 30.08 in 28 mi West 2.3 mph - -   Scattered Clouds
5:00 AM 53.6 °F 50.0 °F 88% 30.07 in 30.0 mi West 2.3 mph - N/A   Partly Cloudy
6:00 AM 53.6 °F 50.0 °F 88% 30.08 in 30.0 mi NNW 2.3 mph - N/A   Partly Cloudy
7:00 AM 57.2 °F 51.8 °F 82% 30.09 in 30.0 mi WSW 3.5 mph - N/A   Partly Cloudy
8:00 AM 59.0 °F 51.8 °F 77% 30.09 in 30.0 mi South 8.1 mph - N/A   Partly Cloudy
9:00 AM 60.8 °F 53.6 °F 77% 30.09 in 30.0 mi SW 6.9 mph - N/A   Mostly Cloudy
10:00 AM 62.6 °F 53.6 °F 72% 30.10 in 30.0 mi SSW 12.7 mph - N/A   Mostly Cloudy
11:00 AM 63 °F 54 °F 64% 30.10 in 25 mi SW 10.4 mph - -   Mostly Cloudy
11:00 AM 62.6 °F 53.6 °F 72% 30.10 in 25.0 mi SSW 6.9 mph - N/A   Mostly Cloudy
12:00 PM 66.2 °F 55.4 °F 68% 30.10 in 25.0 mi SSW 12.7 mph 18.4 mph N/A   Mostly Cloudy
1:00 PM 68.0 °F 55.4 °F 64% 30.10 in 25.0 mi SW 10.4 mph 18.4 mph N/A   Mostly Cloudy
2:00 PM 68.0 °F 53.6 °F 60% 30.10 in 25.0 mi WSW 13.8 mph - N/A   Scattered Clouds
3:00 PM 69.8 °F 55.4 °F 60% 30.09 in 25.0 mi SW 8.1 mph 18.4 mph N/A   Partly Cloudy
4:00 PM 69.8 °F 55.4 °F 60% 30.07 in 25.0 mi SSW 15.0 mph - N/A   Partly Cloudy
5:00 PM 70 °F 54 °F 47% 30.06 in 25 mi SSW 10.4 mph - -   Scattered Clouds
5:00 PM 69.8 °F 53.6 °F 56% 30.06 in 25.0 mi SW 10.4 mph - N/A   Scattered Clouds
6:00 PM 69.8 °F 53.6 °F 56% 30.05 in 25.0 mi SSW 10.4 mph - N/A   Partly Cloudy
7:00 PM 68.0 °F 53.6 °F 60% 30.04 in 25.0 mi SW 11.5 mph - N/A   Partly Cloudy
8:00 PM 66.2 °F 53.6 °F 64% 30.03 in 30.0 mi SSW 10.4 mph - N/A   Partly Cloudy
9:00 PM 62.6 °F 51.8 °F 68% 30.03 in 25.0 mi SW 8.1 mph - N/A   Scattered Clouds
10:00 PM 60.8 °F 51.8 °F 72% 30.04 in 15.0 mi SW 4.6 mph - N/A   Scattered Clouds
11:00 PM 59 °F 51 °F 67% 30.04 in 10 mi SW 6.9 mph - -   Scattered Clouds
11:00 PM 59.0 °F 50.0 °F 72% 30.04 in 10.0 mi SW 6.9 mph - N/A   Scattered Clouds